This is the latest recevied weather packets stored in our database for station/object IW0HP-3. If no packets are shown the sender has not sent any weather packets the latest 10 day(s).
| Time | Temp. | Humidity | Pressure | Rain* | Wind** | Luminosity | Snow |
|---|---|---|---|---|---|---|---|
| 1777547996 | 22.22° C | 50% | 1017.1 hPa | - | - | - | - |
| 1777546791 | 21.11° C | 50% | 1017.3 hPa | - | - | - | - |
| 1777545586 | 21.11° C | 52% | 1017.2 hPa | - | - | - | - |
| 1777544382 | 21.11° C | 52% | 1017.4 hPa | - | - | - | - |
| 1777543177 | 21.11° C | 53% | 1017.6 hPa | - | - | - | - |
| 1777541973 | 20.56° C | 55% | 1017.8 hPa | - | - | - | - |
| 1777540768 | 20° C | 57% | 1017.8 hPa | - | - | - | - |
| 1777539564 | 19.44° C | 58% | 1017.8 hPa | - | - | - | - |
| 1777538360 | 18.89° C | 62% | 1017.7 hPa | - | - | - | - |
| 1777537155 | 18.33° C | 63% | 1017.5 hPa | - | - | - | - |
| 1777535951 | 17.78° C | 63% | 1017.2 hPa | - | - | - | - |
| 1777534746 | 17.78° C | 65% | 1017.3 hPa | - | - | - | - |
| 1777533542 | 17.78° C | 65% | 1017.4 hPa | - | - | - | - |
| 1777532337 | 17.22° C | 67% | 1017.3 hPa | - | - | - | - |
| 1777531133 | 16.67° C | 73% | 1017.2 hPa | - | - | - | - |
| 1777529928 | 16.11° C | 72% | 1017.4 hPa | - | - | - | - |
| 1777527519 | 16.11° C | 73% | 1017.2 hPa | - | - | - | - |
| 1777526315 | 16.11° C | 74% | 1017.1 hPa | - | - | - | - |
| 1777525110 | 15.56° C | 74% | 1017 hPa | - | - | - | - |
| 1777523906 | 15.56° C | 74% | 1016.9 hPa | - | - | - | - |
| 1777522701 | 15.56° C | 74% | 1017.1 hPa | - | - | - | - |
| 1777521497 | 15.56° C | 73% | 1017.1 hPa | - | - | - | - |
| 1777520292 | 15.56° C | 73% | 1017.4 hPa | - | - | - | - |
| 1777519088 | 16.11° C | 72% | 1017.6 hPa | - | - | - | - |
| 1777517883 | 16.11° C | 69% | 1017.5 hPa | - | - | - | - |
* Rain since midnight (hover to see other rain measurements)
** Current wind speed in m/s (hover to see current wind gust speed)